Weather in Rijssen-Holten

Netherlands     52°17′17″N   6°26′50″E
temp.,
°C
wind,
m/s
gust,
m/s
humid.,
%
clouds,
%
prec.,
mm/h
press.,
hPa
HPBL,
m
14 may, fri
fri1423:00+10nne3790100 0.2 1007164
02:00+9ne2397100 0.3 100791
05:00+9n2296100 0.3 100681
08:00+9nnw1193100 0.8 1007105
11:00+9n1294100 4.1 1008143
14:00+11nw2284100 5.8 1008320
17:00+14nw2267100 0.0 1008728
20:00+13nnw12761 0.0 100743
15 may, sat
sat1523:00+9nne22925 0.0 100825
02:00+7e23955 0.0 100739
05:00+7se22966 0.3 100527
08:00+9ssw359240 0.9 1005283
11:00+11ssw5684100 0.1 1004761
14:00+12sw5680100 0.6 1003963
17:00+13sw567864 1.4 1002732
20:00+10wsw599199 2.8 1002471
16 may, sun
sun1623:00+9ssw3696100 1.3 1002350
02:00+8ssw259675 1.3 1002204
05:00+8ssw4997100 0.1 1001321
08:00+8ssw599695 3.5 1002454
11:00+11sw698188 0.1 1002954
14:00+14sw7867100 0.7 10011421
17:00+13wsw687498 1.5 1001938
20:00+11sw478510 2.6 1001401
17 may, mon
mon1723:00+9ssw3796100 0.9 1001167
02:00+9s5119389 1.1 1000341
05:00+8ssw51197100 0.2 1000446
08:00+9ssw51195100 0.8 1000635
11:00+10ssw101693100 5.4 9991114
14:00+12wsw9129088 7.2 10001122
17:00+13w678353 1.5 1002929
20:00+12wnw59875 3.1 1004548
18 may, tue
tue1823:00+8wnw349553 0.0 100666
02:00+7wsw229636 0.0 100736
05:00+7wsw2496100 0.1 100890
08:00+8wsw259688 2.6 1009202
11:00+12w8107633 0.7 10111267
14:00+14w8115814 1.4 10121859
17:00+14w811565 0.3 10132017
20:00+12w477039 0.3 1014298